Total_Precipitation_Accumulation
0.17 0.25 0.50 0.50 0.50 0.47 0.44 0.38 0.37 0.40 0.48 0.59 0.59 0.56 0.57 0.57 0.55 0.49 0.53 0.56 0.59 0.62 0.64 0.69 0.74 0.74 0.77 0.74 0.62 0.43 0.33 0.29 0.25 0.21 0.23 0.26 0.30 0.30 0.26 0.28 0.30 0.33 0.42
0.18 0.26 0.48 0.49 0.54 0.55 0.51 0.42 0.39 0.41 0.48 0.57 0.63 0.64 0.68 0.70 0.65 0.61 0.60 0.62 0.64 0.65 0.67 0.67 0.62 0.53 0.49 0.48 0.39 0.33 0.28 0.19 0.14 0.10 0.07 0.11 0.22 0.29 0.26 0.26 0.29 0.39 0.47
0.20 0.29 0.46 0.54 0.59 0.58 0.54 0.46 0.40 0.41 0.49 0.56 0.64 0.70 0.74 0.74 0.71 0.74 0.75 0.70 0.74 0.70 0.71 0.62 0.50 0.41 0.38 0.34 0.30 0.28 0.25 0.15 0.10 0.07 0.07 0.12 0.19 0.31 0.30 0.32 0.43 0.50 0.54
0.24 0.32 0.42 0.59 0.65 0.62 0.58 0.54 0.46 0.45 0.52 0.58 0.64 0.71 0.75 0.78 0.84 0.88 0.82 0.79 0.78 0.66 0.64 0.56 0.46 0.37 0.32 0.27 0.25 0.24 0.23 0.17 0.11 0.08 0.11 0.17 0.22 0.40 0.45 0.51 0.61 0.57 0.54
0.31 0.40 0.56 0.71 0.73 0.71 0.67 0.63 0.58 0.53 0.58 0.64 0.72 0.79 0.83 0.87 0.91 0.86 0.82 0.74 0.66 0.55 0.53 0.47 0.37 0.32 0.28 0.23 0.21 0.20 0.20 0.15 0.09 0.06 0.09 0.15 0.28 0.54 0.59 0.65 0.70 0.61 0.52
0.43 0.52 0.67 0.80 0.88 0.86 0.81 0.72 0.68 0.67 0.67 0.69 0.77 0.85 0.90 0.96 0.93 0.85 0.79 0.64 0.52 0.45 0.47 0.42 0.33 0.30 0.27 0.23 0.22 0.21 0.19 0.14 0.07 0.07 0.12 0.16 0.28 0.56 0.60 0.67 0.67 0.64 0.60
0.59 0.68 0.77 0.90 0.99 0.98 0.95 0.87 0.79 0.79 0.77 0.77 0.84 0.90 1.01 1.05 0.97 0.92 0.80 0.62 0.49 0.45 0.49 0.43 0.36 0.32 0.29 0.25 0.23 0.22 0.19 0.13 0.06 0.07 0.13 0.19 0.33 0.57 0.69 0.71 0.69 0.61 0.62
0.81 0.94 0.99 1.14 1.13 1.11 1.04 0.99 0.88 0.87 0.87 0.89 0.95 0.97 1.03 1.08 1.01 0.96 0.83 0.69 0.56 0.50 0.50 0.46 0.41 0.36 0.33 0.28 0.26 0.22 0.17 0.11 0.06 0.06 0.12 0.21 0.35 0.58 0.73 0.66 0.64 0.56 0.52
1.21 1.34 1.28 1.28 1.15 1.18 1.13 1.02 0.96 0.91 0.95 0.99 1.01 0.96 0.97 1.00 0.99 0.93 0.82 0.72 0.67 0.62 0.60 0.57 0.49 0.41 0.36 0.31 0.27 0.22 0.14 0.10 0.07 0.06 0.09 0.19 0.34 0.55 0.71 0.74 0.67 0.58 0.57
1.59 1.75 1.68 1.52 1.35 1.25 1.21 1.10 1.04 0.98 0.97 0.96 0.88 0.75 0.72 0.80 0.86 0.81 0.66 0.63 0.64 0.62 0.64 0.62 0.56 0.47 0.39 0.34 0.28 0.21 0.14 0.11 0.08 0.08 0.12 0.20 0.37 0.60 0.76 0.78 0.74 0.65 0.63
1.91 2.00 2.06 1.90 1.63 1.44 1.32 1.15 1.17 1.12 1.03 0.96 0.81 0.66 0.63 0.68 0.73 0.65 0.52 0.51 0.57 0.58 0.60 0.61 0.57 0.51 0.41 0.32 0.28 0.22 0.18 0.13 0.10 0.11 0.15 0.26 0.49 0.70 0.76 0.72 0.68 0.62 0.64
1.98 2.07 2.22 2.10 1.93 1.74 1.50 1.26 1.30 1.29 1.09 0.95 0.79 0.73 0.69 0.68 0.71 0.63 0.54 0.50 0.56 0.54 0.53 0.62 0.62 0.55 0.46 0.34 0.29 0.26 0.23 0.17 0.14 0.14 0.18 0.32 0.57 0.73 0.75 0.64 0.61 0.59 0.60
2.11 2.27 2.37 2.37 2.11 1.99 1.84 1.49 1.30 1.32 1.26 1.14 0.97 0.86 0.82 0.80 0.79 0.76 0.67 0.61 0.60 0.52 0.47 0.48 0.53 0.48 0.42 0.38 0.34 0.29 0.26 0.24 0.21 0.18 0.21 0.29 0.49 0.68 0.74 0.65 0.60 0.60 0.60
2.28 2.33 2.42 2.57 2.39 2.11 1.95 1.78 1.57 1.43 1.38 1.29 1.14 1.07 1.04 0.96 0.82 0.75 0.68 0.61 0.64 0.59 0.53 0.51 0.46 0.42 0.43 0.42 0.39 0.35 0.33 0.32 0.24 0.24 0.24 0.29 0.41 0.60 0.72 0.72 0.67 0.66 0.66
2.29 2.41 2.47 2.54 2.57 2.34 2.14 1.95 1.77 1.61 1.48 1.51 1.46 1.33 1.23 1.14 0.97 0.83 0.75 0.74 0.76 0.73 0.68 0.62 0.57 0.55 0.51 0.51 0.46 0.39 0.38 0.39 0.34 0.30 0.29 0.29 0.32 0.48 0.66 0.77 0.82 0.82 0.83
2.19 2.37 2.49 2.57 2.67 2.63 2.33 2.16 1.98 1.74 1.55 1.60 1.61 1.50 1.46 1.38 1.30 1.16 1.05 0.95 0.90 0.87 0.84 0.80 0.74 0.72 0.67 0.60 0.57 0.49 0.43 0.43 0.45 0.43 0.40 0.37 0.34 0.38 0.55 0.73 0.88 0.97 0.98
2.16 2.37 2.40 2.50 2.67 2.72 2.59 2.42 2.20 2.03 1.76 1.66 1.58 1.53 1.56 1.49 1.42 1.38 1.32 1.28 1.22 1.14 1.07 1.03 1.00 0.95 0.86 0.74 0.65 0.61 0.57 0.53 0.53 0.55 0.55 0.50 0.45 0.41 0.50 0.70 0.85 1.00 1.04
2.21 2.39 2.43 2.46 2.61 2.65 2.66 2.68 2.55 2.42 2.18 1.91 1.76 1.69 1.65 1.63 1.56 1.47 1.38 1.29 1.30 1.38 1.38 1.30 1.21 1.14 1.00 0.87 0.75 0.66 0.59 0.58 0.56 0.58 0.61 0.63 0.60 0.50 0.46 0.57 0.70 0.86 0.97
2.14 2.33 2.49 2.50 2.67 2.75 2.72 2.74 2.71 2.56 2.49 2.32 1.99 1.76 1.71 1.77 1.76 1.69 1.54 1.44 1.44 1.35 1.36 1.39 1.32 1.22 1.14 1.07 0.96 0.83 0.70 0.61 0.58 0.57 0.57 0.59 0.62 0.58 0.52 0.53 0.59 0.69 0.82
2.05 2.22 2.41 2.49 2.64 2.93 3.00 2.92 2.85 2.60 2.38 2.41 2.25 2.00 1.83 1.84 1.91 1.84 1.68 1.63 1.68 1.57 1.42 1.31 1.31 1.27 1.17 1.17 1.15 1.04 0.93 0.82 0.75 0.66 0.61 0.60 0.60 0.58 0.57 0.52 0.53 0.56 0.66
1.98 2.15 2.30 2.41 2.50 2.74 2.92 2.91 2.77 2.58 2.35 2.24 2.23 2.16 2.07 2.00 2.06 2.03 1.85 1.74 1.73 1.65 1.52 1.44 1.38 1.38 1.34 1.29 1.37 1.29 1.15 1.04 0.97 0.87 0.77 0.71 0.69 0.68 0.65 0.61 0.58 0.56 0.56
1.76 1.97 2.21 2.32 2.41 2.42 2.48 2.71 2.86 2.90 2.71 2.42 2.25 2.17 2.09 2.03 2.04 2.04 2.01 1.93 1.83 1.77 1.72 1.68 1.65 1.59 1.54 1.54 1.57 1.61 1.48 1.32 1.08 0.93 0.89 0.83 0.76 0.75 0.72 0.67 0.60 0.57 0.55
1.53 1.76 2.05 2.21 2.34 2.36 2.39 2.65 2.87 3.04 2.87 2.53 2.17 2.00 2.01 2.03 2.07 2.00 2.01 2.06 2.00 1.90 1.78 1.73 1.70 1.69 1.66 1.63 1.62 1.74 1.59 1.32 1.05 0.92 0.84 0.80 0.78 0.77 0.75 0.75 0.74 0.68 0.64
1.35 1.52 1.69 1.90 2.07 2.27 2.36 2.42 2.46 2.59 2.58 2.32 2.20 2.09 2.08 2.08 2.09 2.06 2.03 2.05 2.04 1.97 1.82 1.77 1.72 1.67 1.69 1.67 1.63 1.55 1.44 1.22 1.13 1.03 0.90 0.81 0.79 0.80 0.82 0.82 0.81 0.82 0.80
1.19 1.42 1.56 1.65 1.84 2.07 2.22 2.27 2.39 2.39 2.42 2.47 2.43 2.32 2.21 2.14 2.09 2.04 2.02 2.03 1.96 1.91 1.86 1.89 1.84 1.81 1.76 1.68 1.60 1.54 1.53 1.36 1.17 1.14 1.02 0.88 0.86 0.84 0.88 0.93 0.91 0.91 0.89
1.10 1.26 1.48 1.48 1.58 1.75 2.01 2.22 2.27 2.22 2.26 2.31 2.30 2.24 2.20 2.16 2.12 2.04 1.95 1.91 1.88 1.89 1.89 1.91 1.95 1.91 1.89 1.85 1.74 1.61 1.60 1.57 1.38 1.31 1.24 1.05 0.98 0.92 0.88 0.91 0.94 0.95 0.92